Weather History for Fairbanks Eiels, AK

Change the Weather History Date:

Wednesday, November 14, 2012

  Actual Average Record
Temperature  
Mean Temperature 2 °F -  
Max Temperature 10 °F 7 °F 39 °F (2013)
Min Temperature -6 °F -5 °F -40 °F (1956)
Degree Days  
Heating Degree Days 63    
Moisture  
Dew Point -2 °F    
Average Humidity 78    
Maximum Humidity 83    
Minimum Humidity 62    
Precipitation  
Precipitation 0.00 in - - ()
Sea Level Pressure  
Sea Level Pressure 29.70 in    
Wind  
Wind Speed 0 mph (NE)    
Max Wind Speed 6 mph    
Max Gust Speed -    
Visibility 10 miles    
Events Snow    
Averages and records for this station are not official NWS values.
T = Trace of Precipitation, MM = Missing Value Source: NWS Daily Summary

Daily Weather History Graph

Daily Weather History Graph

Search for Another Location

Airport:

Trip Planner

Search our weather history database for the weather conditions in past years. The results will help you decide how hot, cold, wet, or windy it might be!

Date:

Astronomy

Nov. 14, 2012 Rise Set
Actual Time 9:21 AM AKST 3:43 PM AKST
Civil Twilight 8:19 AM AKST 4:45 PM AKST
Nautical Twilight 7:17 AM AKST 5:47 PM AKST
Astronomical Twilight 6:19 AM AKST 6:44 PM AKST
Moon 10:55 AM AKST (11/14) 4:06 PM AKST (11/14)
Length of Visible Light 8h 26m
Length of Day
6h 22m
New Moon, 1% of the Moon is Illuminated
Nov 14
New Moon
Nov 20
First Quarter
Nov 28
Full
Dec 6
Last Quarter
Dec 12
New

Hourly Weather History & Observations

Time (AKST) Temp. Windchill Dew Point Humidity Pressure Visibility Wind Dir Wind Speed Gust Speed Precip Events Conditions
12:55 AM -6.7 °F - -11.6 °F 79% 29.80 in 10.0 mi Calm Calm - N/A   Clear
1:55 AM -6.3 °F - -11.2 °F 79% 29.78 in 10.0 mi Calm Calm - N/A   Clear
2:55 AM -5.8 °F - -10.5 °F 80% 29.76 in 10.0 mi Calm Calm - N/A   Clear
3:55 AM -4.5 °F - -9.2 °F 80% 29.74 in 10.0 mi Calm Calm - N/A   Clear
4:55 AM -6.0 °F - -10.8 °F 79% 29.73 in 10.0 mi Calm Calm - N/A   Overcast
5:55 AM -3.5 °F - -8.1 °F 80% 29.71 in 10.0 mi Calm Calm - N/A   Overcast
6:55 AM -3.8 °F - -8.7 °F 80% 29.71 in 10.0 mi Calm Calm - N/A   Mostly Cloudy
7:55 AM -4.4 °F - -9.0 °F 80% 29.70 in 10.0 mi Calm Calm - N/A   Overcast
8:55 AM -2.4 °F - -6.9 °F 81% 29.70 in 10.0 mi Calm Calm - N/A   Overcast
9:55 AM -0.4 °F - -4.9 °F 81% 29.69 in 10.0 mi Calm Calm - N/A   Overcast
10:55 AM 1.6 °F - -2.9 °F 81% 29.68 in 10.0 mi Calm Calm - N/A   Overcast
11:55 AM 3.6 °F - -1.5 °F 80% 29.68 in 10.0 mi Calm Calm - N/A   Overcast
12:55 PM 4.8 °F - -0.0 °F 80% 29.66 in 10.0 mi Calm Calm - N/A   Overcast
1:55 PM 6.1 °F - 1.0 °F 80% 29.66 in 10.0 mi Calm Calm - N/A   Overcast
2:55 PM 8.4 °F - 4.1 °F 83% 29.64 in 10.0 mi Calm Calm - N/A   Overcast
3:55 PM 10.9 °F - 3.2 °F 71% 29.62 in 10.0 mi Calm Calm - 0.00 in   Mostly Cloudy
4:55 PM 10.0 °F 1.8 °F 0.9 °F 66% 29.63 in 10.0 mi NE 4.6 mph - 0.00 in   Overcast
5:16 PM 10.4 °F 0.8 °F -0.4 °F 62% 29.64 in 10.0 mi ENE 5.8 mph - N/A   Overcast
5:55 PM 9.9 °F - 0.3 °F 65% 29.64 in 10.0 mi Calm Calm - 0.00 in   Overcast
6:55 PM 9.3 °F - 0.9 °F 69% 29.65 in 10.0 mi Calm Calm - N/A   Overcast
7:55 PM 7.3 °F - 1.2 °F 76% 29.66 in 10.0 mi Calm Calm - N/A   Overcast
8:55 PM 7.2 °F - 2.7 °F 82% 29.68 in 10.0 mi Calm Calm - N/A   Overcast
9:55 PM 7.3 °F - 3.0 °F 82% 29.69 in 10.0 mi Calm Calm - N/A   Overcast
10:55 PM 7.5 °F - 3.4 °F 83% 29.71 in 10.0 mi Calm Calm - 0.00 in Snow Light Snow
11:11 PM 8.6 °F - 3.2 °F 79% 29.72 in 10.0 mi Calm Calm - N/A   Overcast
11:34 PM 8.6 °F - 3.2 °F 79% 29.73 in 10.0 mi Calm Calm - N/A   Overcast
11:51 PM 8.6 °F - 3.2 °F 79% 29.74 in 10.0 mi Calm Calm - N/A   Overcast
11:55 PM 7.9 °F - 3.6 °F 83% 29.74 in 10.0 mi Calm Calm - 0.00 in   Overcast